Home   Weather   Kehl   Past weeks

Flag for Germany Past Weather in Kehl, Baden-Württemberg, Germany — Yesterday and Last 2 Weeks

Now
61 °F

Sunny.


Feels Like: 61 °F
Forecast: 54 / 67 °F
Wind: 2 mph from North

Location: Strasbourg Airport

Current Time: Sep 25, 2016 at 11:00:56 AM

Latest Report: Sep 25, 2016 at 10:30 AM


Visibility: 10 mi

Pressure: 30.15 "Hg

Humidity: 77%

Dew Point: 54 °F

Location of KehlLocation

Past Weather in Kehl — Graph

°F

Kehl Temperature Yesterday

Maximum temperature yesterday: 75 °F (at 3:30 PM)
Minimum temperature yesterday: 43 °F (at 7:00 AM)
Average temperature yesterday: 58 °F

High & Low Weather Summary for the Past Weeks

 TemperatureHumidityPressure
High90 °F (Sep 12, 4:30 PM)100% (Sep 13, 6:30 AM)30.30 "Hg (Sep 13, 6:30 AM)
Low43 °F (Sep 24, 7:00 AM)33% (Sep 10, 5:00 PM)29.77 "Hg (Sep 15, 3:00 AM)
Average64 °F74%30.04 "Hg
* Reported Sep 10 10:00 AM — Sep 25 10:00 AM, Kehl, Weather by CustomWeather, © 2016

Note: Actual official high and low records may vary slightly from our data, if they occured in-between our weather recording intervals... More about our weather records

Advertising

Kehl Weather History for the Previous 24 Hours

Scroll right to see more
 ConditionsComfort  
Time TempWeatherWind HumidityBarometerVisibility
10:00 AM
Sun, Sep 25
57 °FSunny.2 mph82%30.15 "Hg10 mi
9:30 AM55 °FClear.2 mph88%30.15 "Hg6 mi
9:00 AM54 °FClear.No wind94%30.15 "Hg6 mi
8:30 AM50 °FClear.No wind100%30.15 "Hg5 mi
8:00 AM46 °FSunny.1 mph93%30.15 "Hg10 mi
7:30 AM45 °FSunny.1 mph100%30.12 "Hg10 mi
7:00 AM45 °FClear.3 mph100%30.12 "Hg10 mi
6:30 AM46 °FPassing clouds.3 mph93%30.12 "Hg6 mi
6:00 AM46 °FPassing clouds.1 mph100%30.12 "HgN/A
5:30 AM46 °FClear.1 mph93%30.12 "Hg4 mi
5:00 AM46 °FClear.No wind93%30.12 "Hg4 mi
4:30 AM46 °FFog.1 mph93%30.12 "Hg3 mi
4:00 AM46 °FClear.2 mph93%30.15 "Hg6 mi
3:30 AM48 °FClear.5 mph94%30.15 "Hg10 mi
3:00 AM48 °FClear.3 mph94%30.15 "Hg10 mi
2:30 AM48 °FClear.No wind94%30.15 "Hg10 mi
2:00 AM48 °FClear.3 mph94%30.15 "Hg10 mi
1:30 AM48 °FClear.No wind94%30.15 "Hg10 mi
1:00 AM48 °FClear.2 mph94%30.15 "Hg10 mi
12:30 AM48 °FClear.2 mph94%30.15 "Hg10 mi
12:00 AM50 °FClear.2 mph88%30.15 "Hg10 mi
11:30 PM
Sat, Sep 24
52 °FClear.3 mph88%30.15 "Hg10 mi
11:00 PM54 °FClear.1 mph88%30.15 "Hg10 mi
10:30 PM54 °FClear.2 mph88%30.15 "Hg10 mi
10:00 PM55 °FClear.3 mph82%30.15 "Hg10 mi
9:30 PM55 °FClear.3 mph88%30.15 "Hg10 mi
9:00 PM57 °FClear.5 mph82%30.15 "Hg10 mi
8:30 PM59 °FClear.1 mph77%30.15 "Hg10 mi
8:00 PM61 °FClear.No wind77%30.15 "Hg10 mi
7:30 PM63 °FClear.2 mph68%30.15 "HgN/A
7:00 PM68 °FSunny.2 mph53%30.15 "Hg10 mi
6:30 PM73 °FSunny.2 mph44%30.18 "Hg10 mi
6:00 PM73 °FSunny.3 mph41%30.18 "Hg10 mi
5:30 PM75 °FPassing clouds.5 mph39%30.18 "HgN/A
5:00 PM75 °FPassing clouds.5 mph41%30.18 "HgN/A
4:30 PM75 °FPassing clouds.5 mph39%30.21 "HgN/A
4:00 PM75 °FSunny.3 mph39%30.21 "Hg10 mi
3:30 PM75 °FSunny.2 mph39%30.21 "Hg10 mi
3:00 PM73 °FSunny.2 mph38%30.24 "Hg10 mi
2:30 PM73 °FSunny.2 mph41%30.24 "Hg10 mi
2:00 PM73 °FSunny.3 mph41%30.24 "Hg10 mi
1:30 PM72 °FPassing clouds.3 mph47%30.27 "HgN/A
1:00 PM70 °FSunny.3 mph50%30.27 "Hg10 mi
12:30 PM68 °FSunny.2 mph56%30.27 "Hg10 mi
12:00 PM66 °FSunny.2 mph60%30.30 "Hg10 mi
11:30 AM64 °FSunny.2 mph64%30.30 "Hg10 mi
11:00 AM63 °FSunny.1 mph68%30.30 "Hg10 mi
Weather by CustomWeather, © 2016

See weather overviewHow to use our weather pages